Orbital Elements at Epoch 2459000.5 (2020-May-31.0) TDB
Reference: JPL 19 (heliocentric ecliptic J2000)
Element | Value | Uncertainty (1-sigma) | Units |
e | .07663956076385352 | 3.7905e-08 | |
a | 2.380888146621247 | 8.442e-09 | au |
q | 2.19841792483633 | 9.2007e-08 | au |
i | .4461461177604764 | 4.7114e-06 | deg |
node | 197.1551611374619 | 0.0004501 | deg |
peri | 227.6008936186792 | 0.00045097 | deg |
M | 288.9227469939933 | 2.7266e-05 | deg |
tp | 2459265.432385666450 (2021-Feb-19.93238567) | 0.00010169 | TDB |
period | 1341.859101277614 3.67 | 7.1368e-06 1.954e-08 | d yr |
n | .2682845014482041 | 1.4269e-09 | deg/d |
Q | 2.563358368406165 | 9.089e-09 | au |
|
| | Orbit Determination Parameters
Additional Information
|